TimeMDT,TemperatureF,Dew PointF,Humidity,Sea Level PressureIn,VisibilityMPH,Wind Direction,Wind SpeedMPH,Gust SpeedMPH,PrecipitationIn,Events,Conditions,WindDirDegrees,DateUTC
12:30 AM,80.6,57.2,45,29.87,10.0,South,11.5,-,N/A,,Partly Cloudy,170,2013-07-17 06:30:00
12:58 AM,77.2,58.5,52,29.78,10.0,South,9.2,-,N/A,,Scattered Clouds,170,2013-07-17 06:58:00
1:58 AM,74.3,57.4,55,29.78,10.0,SSE,9.2,-,N/A,,Mostly Cloudy,150,2013-07-17 07:58:00
2:58 AM,74.1,56.3,54,29.81,10.0,West,3.5,-,N/A,,Scattered Clouds,270,2013-07-17 08:58:00
3:58 AM,70.9,55.4,58,29.82,10.0,WNW,3.5,-,N/A,,Scattered Clouds,290,2013-07-17 09:58:00
4:58 AM,69.6,54.7,59,29.84,10.0,NW,3.5,-,N/A,,Partly Cloudy,320,2013-07-17 10:58:00
5:58 AM,71.6,55.0,56,29.88,10.0,NNW,4.6,-,N/A,,Clear,330,2013-07-17 11:58:00
6:58 AM,72.3,56.3,57,29.92,10.0,ENE,2.3,-,N/A,,Clear,70,2013-07-17 12:58:00
7:58 AM,77.2,58.8,53,29.95,10.0,NE,11.5,-,N/A,,Clear,40,2013-07-17 13:58:00
8:58 AM,81.3,57.2,44,29.97,10.0,NNE,6.9,-,N/A,,Clear,30,2013-07-17 14:58:00
9:58 AM,86.7,47.3,25,29.97,10.0,NNW,11.5,-,N/A,,Clear,340,2013-07-17 15:58:00
10:58 AM,88.2,44.6,22,29.96,10.0,NW,12.7,-,N/A,,Clear,310,2013-07-17 16:58:00
11:58 AM,91.2,42.6,18,29.96,10.0,NW,9.2,19.6,N/A,,Clear,320,2013-07-17 17:58:00
12:11 PM,91.4,42.8,18,30.06,10.0,NNW,12.7,26.5,N/A,,Clear,340,2013-07-17 18:11:00
12:58 PM,92.3,40.3,16,29.96,10.0,NW,12.7,16.1,N/A,,Clear,310,2013-07-17 18:58:00
1:03 PM,93.2,39.2,15,30.06,10.0,West,12.7,-,N/A,,Clear,280,2013-07-17 19:03:00
1:58 PM,93.9,39.6,15,29.96,10.0,WNW,10.4,18.4,N/A,,Clear,290,2013-07-17 19:58:00
2:28 PM,95.0,41.0,15,30.05,10.0,West,11.5,19.6,N/A,,Clear,270,2013-07-17 20:28:00
2:58 PM,94.6,42.4,16,29.95,10.0,WNW,10.4,16.1,N/A,,Clear,290,2013-07-17 20:58:00
3:58 PM,96.8,42.6,15,29.93,10.0,NW,16.1,19.6,N/A,,Clear,320,2013-07-17 21:58:00
4:58 PM,97.7,41.7,15,29.91,10.0,NW,15.0,-,N/A,,Clear,320,2013-07-17 22:58:00
5:58 PM,98.6,33.8,10,29.88,10.0,NNW,15.0,21.9,N/A,,Clear,330,2013-07-17 23:58:00
6:12 PM,98.6,32.0,10,29.98,10.0,WNW,16.1,26.5,N/A,,Clear,290,2013-07-18 00:12:00
6:15 PM,98.6,32.0,10,29.98,10.0,NNW,16.1,-,N/A,,Clear,330,2013-07-18 00:15:00
6:58 PM,98.1,24.6,7,29.87,10.0,NW,18.4,23.0,N/A,,Clear,310,2013-07-18 00:58:00
7:58 PM,95.9,19.4,6,29.88,10.0,NNW,17.3,-,N/A,,Clear,330,2013-07-18 01:58:00
8:58 PM,92.7,20.7,7,29.89,10.0,NNW,12.7,-,N/A,,Clear,340,2013-07-18 02:58:00
9:58 PM,82.9,19.4,9,29.91,10.0,NW,9.2,-,N/A,,Clear,320,2013-07-18 03:58:00
10:58 PM,76.1,22.3,13,29.94,10.0,NW,8.1,-,N/A,,Clear,310,2013-07-18 04:58:00
11:58 PM,71.4,21.9,16,29.94,10.0,NW,6.9,-,N/A,,Clear,310,2013-07-18 05:58:00